Change the Weather History Date:

Sunday, December 30, 2012

  Actual Average Record
Temperature  
Mean Temperature 22 °F -  
Max Temperature 29 °F 29 °F 42 °F (1999)
Min Temperature 16 °F 14 °F -8 °F (2013)
Degree Days  
Heating Degree Days 42    
Moisture  
Dew Point 18 °F    
Average Humidity 80    
Maximum Humidity 90    
Minimum Humidity 62    
Precipitation  
Precipitation 0.00 in - - ()
Sea Level Pressure  
Sea Level Pressure 30.11 in    
Wind  
Wind Speed 8 mph (WSW)    
Max Wind Speed 18 mph    
Max Gust Speed 18 mph    
Visibility 10 miles    
Events Snow    
Averages and records for this station are not official NWS values.
T = Trace of Precipitation, MM = Missing Value Source: NWS Daily Summary

Daily Weather History Graph

Daily Weather History Graph

Search for Another Location

Airport or City:

Trip Planner

Search our weather history database for the weather conditions in past years. The results will help you decide how hot, cold, wet, or windy it might be!

Date:

Astronomy

Dec. 30, 2012 Rise Set
Actual Time 8:09 AM EST 5:03 PM EST
Civil Twilight 7:36 AM EST 5:36 PM EST
Nautical Twilight 6:59 AM EST 6:13 PM EST
Astronomical Twilight 6:24 AM EST 6:48 PM EST
Moon 7:39 PM EST (12/30) 9:12 AM EST (12/30)
Length of Visible Light 10h 00m
Length of Day
8h 53m
Waning Gibbous, 95% of the Moon is Illuminated
Dec 30
Waning Gibbous
Jan 4
Last Quarter
Jan 11
New
Jan 18
First Quarter
Jan 26
Full

Hourly Weather History & Observations

Time (EST) Temp. Windchill Dew Point Humidity Pressure Visibility Wind Dir Wind Speed Gust Speed Precip Events Conditions
12:14 AM 17.2 °F 6.8 °F 13.6 °F 86% 30.00 in 10.0 mi West 8.1 mph - N/A   Scattered Clouds
12:34 AM 18.1 °F 7.9 °F 14.2 °F 84% 30.00 in 10.0 mi West 8.1 mph - N/A   Scattered Clouds
12:54 AM 18.0 °F 9.8 °F 14.2 °F 85% 30.00 in 10.0 mi West 5.8 mph - N/A   Clear
1:13 AM 17.2 °F 8.9 °F 14.0 °F 87% 30.01 in 10.0 mi West 5.8 mph - N/A   Clear
1:34 AM 17.1 °F 5.8 °F 14.4 °F 89% 30.01 in 10.0 mi West 9.2 mph - N/A   Clear
1:54 AM 17.6 °F 6.4 °F 14.7 °F 88% 30.02 in 10.0 mi West 9.2 mph - N/A   Clear
2:13 AM 17.4 °F 9.1 °F 14.4 °F 88% 30.03 in 10.0 mi WNW 5.8 mph - N/A   Clear
2:34 AM 16.0 °F 7.4 °F 13.5 °F 90% 30.04 in 10.0 mi West 5.8 mph - N/A   Clear
2:54 AM 16.3 °F 6.7 °F 14.0 °F 90% 30.06 in 10.0 mi West 6.9 mph - N/A   Scattered Clouds
3:13 AM 18.1 °F 8.9 °F 15.4 °F 89% 30.06 in 10.0 mi West 6.9 mph - N/A   Overcast
3:34 AM 18.9 °F 8.8 °F 15.8 °F 88% 30.06 in 10.0 mi West 8.1 mph - N/A   Overcast
3:54 AM 19.2 °F 12.5 °F 16.2 °F 88% 30.06 in 10.0 mi West 4.6 mph - N/A   Overcast
4:13 AM 19.8 °F 11.9 °F 16.7 °F 88% 30.07 in 10.0 mi West 5.8 mph - N/A   Overcast
4:34 AM 20.8 °F 12.1 °F 17.6 °F 87% 30.08 in 10.0 mi West 6.9 mph - N/A   Overcast
4:54 AM 21.6 °F 13.0 °F 18.1 °F 87% 30.08 in 10.0 mi West 6.9 mph - N/A   Overcast
5:13 AM 22.1 °F 13.7 °F 18.5 °F 86% 30.09 in 10.0 mi West 6.9 mph - N/A   Overcast
5:34 AM 22.1 °F 14.7 °F 18.5 °F 86% 30.10 in 10.0 mi West 5.8 mph - N/A   Overcast
5:54 AM 22.1 °F 14.7 °F 18.9 °F 87% 30.10 in 10.0 mi West 5.8 mph - N/A   Overcast
6:13 AM 22.6 °F 18.0 °F 19.0 °F 86% 30.11 in 10.0 mi WSW 3.5 mph - N/A   Overcast
6:34 AM 22.6 °F 18.0 °F 19.2 °F 87% 30.12 in 10.0 mi West 3.5 mph - N/A   Overcast
6:54 AM 22.6 °F 16.5 °F 19.2 °F 87% 30.13 in 10.0 mi West 4.6 mph - N/A   Overcast
7:13 AM 22.1 °F 14.7 °F 19.6 °F 90% 30.14 in 10.0 mi SW 5.8 mph - N/A   Overcast
7:34 AM 22.6 °F 15.3 °F 19.9 °F 89% 30.15 in 10.0 mi SW 5.8 mph - N/A   Overcast
7:54 AM 23.0 °F 15.8 °F 20.1 °F 89% 30.15 in 10.0 mi SW 5.8 mph - N/A   Overcast
8:13 AM 23.2 °F 17.2 °F 20.3 °F 89% 30.16 in 10.0 mi SW 4.6 mph - N/A   Overcast
8:34 AM 23.7 °F 17.8 °F 20.3 °F 87% 30.16 in 10.0 mi SW 4.6 mph - N/A   Overcast
8:54 AM 23.9 °F 18.0 °F 20.3 °F 86% 30.16 in 10.0 mi SW 4.6 mph - N/A   Overcast
9:13 AM 23.9 °F 18.0 °F 20.7 °F 87% 30.16 in 7.0 mi SW 4.6 mph - N/A Snow Light Snow
9:34 AM 24.6 °F 18.8 °F 21.0 °F 86% 30.17 in 10.0 mi SW 4.6 mph - N/A   Overcast
9:54 AM 25.3 °F 18.5 °F 21.6 °F 86% 30.17 in 10.0 mi SW 5.8 mph - N/A   Overcast
10:13 AM 26.2 °F 19.6 °F 22.1 °F 84% 30.18 in 10.0 mi SW 5.8 mph - N/A   Overcast
10:34 AM 27.1 °F 18.2 °F 23.2 °F 85% 30.19 in 7.0 mi SW 9.2 mph - N/A Snow Light Snow
10:54 AM 27.9 °F 17.8 °F 23.4 °F 83% 30.19 in 10.0 mi WSW 11.5 mph - N/A Snow Light Snow
11:13 AM 28.4 °F 18.5 °F 23.5 °F 82% 30.18 in 10.0 mi WSW 11.5 mph - N/A   Overcast
11:34 AM 28.4 °F 18.0 °F 23.0 °F 80% 30.18 in 7.0 mi WSW 12.7 mph - N/A Snow Light Snow
11:54 AM 29.5 °F 19.9 °F 22.1 °F 74% 30.17 in 10.0 mi West 11.5 mph - N/A   Overcast
12:13 PM 29.1 °F 18.9 °F 21.4 °F 73% 30.17 in 10.0 mi West 12.7 mph - N/A   Overcast
12:34 PM 28.4 °F 19.1 °F 20.3 °F 72% 30.15 in 10.0 mi West 10.4 mph - N/A   Scattered Clouds
12:54 PM 29.5 °F 18.8 °F 20.1 °F 68% 30.15 in 10.0 mi West 13.8 mph - N/A   Mostly Cloudy
1:13 PM 29.3 °F 20.2 °F 19.0 °F 66% 30.15 in 10.0 mi West 10.4 mph - N/A   Overcast
1:34 PM 29.5 °F 19.3 °F 17.8 °F 62% 30.14 in 10.0 mi West 12.7 mph 18.4 mph N/A   Mostly Cloudy
1:54 PM 29.3 °F 19.1 °F 18.1 °F 63% 30.14 in 10.0 mi West 12.7 mph - N/A   Mostly Cloudy
2:14 PM 28.4 °F 15.8 °F 18.1 °F 65% 30.15 in 10.0 mi WSW 18.4 mph - N/A   Overcast
2:34 PM 28.2 °F 17.7 °F 18.5 °F 67% 30.15 in 10.0 mi West 12.7 mph - N/A   Overcast
2:54 PM 28.2 °F 18.9 °F 18.7 °F 67% 30.15 in 10.0 mi WSW 10.4 mph - N/A   Overcast
3:13 PM 28.0 °F 17.5 °F 18.9 °F 68% 30.15 in 10.0 mi WSW 12.7 mph - N/A   Overcast
3:34 PM 27.9 °F 19.8 °F 19.0 °F 69% 30.15 in 10.0 mi WSW 8.1 mph - N/A   Overcast
3:53 PM 27.9 °F 18.4 °F 18.7 °F 68% 30.14 in 10.0 mi WSW 10.4 mph - N/A   Overcast
4:14 PM 27.9 °F 17.3 °F 19.0 °F 69% 30.15 in 10.0 mi SW 12.7 mph - N/A   Overcast
4:34 PM 27.5 °F 18.0 °F 18.3 °F 68% 30.15 in 10.0 mi WSW 10.4 mph - N/A   Overcast
4:53 PM 27.0 °F 17.3 °F 17.8 °F 68% 30.15 in 10.0 mi WSW 10.4 mph - N/A   Overcast
5:14 PM 25.0 °F 17.1 °F 16.7 °F 71% 30.14 in 10.0 mi WSW 6.9 mph - N/A   Overcast
5:39 PM 23.9 °F 16.8 °F 16.2 °F 72% 30.13 in 10.0 mi SW 5.8 mph - N/A   Mostly Cloudy
5:58 PM 23.5 °F 17.6 °F 16.2 °F 73% 30.13 in 10.0 mi SSW 4.6 mph - N/A   Mostly Cloudy
6:14 PM 23.9 °F 15.8 °F 16.2 °F 72% 30.13 in 10.0 mi SSW 6.9 mph - N/A   Mostly Cloudy
6:34 PM 23.2 °F 15.0 °F 16.0 °F 74% 30.13 in 10.0 mi SW 6.9 mph - N/A   Scattered Clouds
6:53 PM 23.5 °F 14.5 °F 16.5 °F 75% 30.13 in 10.0 mi SW 8.1 mph - N/A   Clear
7:14 PM 23.2 °F 16.0 °F 16.7 °F 76% 30.13 in 10.0 mi SSW 5.8 mph - N/A   Clear
7:34 PM 23.4 °F 15.2 °F 16.7 °F 76% 30.13 in 10.0 mi SSW 6.9 mph - N/A   Clear
7:53 PM 22.8 °F 16.7 °F 16.7 °F 77% 30.13 in 10.0 mi SSW 4.6 mph - N/A   Clear
8:14 PM 22.5 °F 14.1 °F 16.9 °F 79% 30.12 in 10.0 mi SSW 6.9 mph - N/A   Clear
8:34 PM 23.0 °F 13.9 °F 17.6 °F 80% 30.12 in 10.0 mi SSW 8.1 mph - N/A   Scattered Clouds
8:53 PM 23.4 °F 12.2 °F 18.1 °F 80% 30.12 in 10.0 mi SSW 11.5 mph - N/A   Mostly Cloudy
9:14 PM 24.3 °F 15.4 °F 18.5 °F 79% 30.12 in 10.0 mi SSW 8.1 mph - N/A   Overcast
9:34 PM 23.9 °F 15.0 °F 18.5 °F 80% 30.11 in 10.0 mi SSW 8.1 mph - N/A   Overcast
9:53 PM 24.1 °F 15.2 °F 19.0 °F 81% 30.10 in 10.0 mi SW 8.1 mph - N/A   Overcast
10:14 PM 24.8 °F 13.4 °F 19.4 °F 80% 30.08 in 10.0 mi SW 12.7 mph 18.4 mph N/A   Overcast
10:34 PM 25.5 °F 14.9 °F 20.3 °F 81% 30.08 in 10.0 mi SW 11.5 mph - N/A   Overcast
10:53 PM 25.7 °F 15.7 °F 20.7 °F 81% 30.07 in 10.0 mi SW 10.4 mph 16.1 mph N/A   Overcast
11:14 PM 26.2 °F 18.6 °F 21.0 °F 81% 30.06 in 10.0 mi SW 6.9 mph - N/A   Overcast
11:34 PM 26.2 °F 17.1 °F 21.2 °F 81% 30.06 in 10.0 mi SW 9.2 mph - N/A   Overcast
11:53 PM 26.4 °F 17.3 °F 21.2 °F 81% 30.05 in 10.0 mi SSW 9.2 mph - N/A   Overcast